,,,PA_Meas_PMT16A,,PR_Meas_QMR101_102,,RH_Meas_QMH101,,SR_Meas_QMS101,,TA_Meas_QMH101,,GenWind,,GenWind,
date,time,status,PA,status,PR,status,RH,status,SR,status,TA,status,DirAvg,status,SpdAvg,
2010-03-19, 00:00:05,VALID,1005.66,VALID,0,VALID,83.8643,VALID,0,VALID,25.2611,VALID,345,VALID,0.511328,
2010-03-19, 00:01:05,VALID,1005.64,VALID,0,VALID,83.8185,VALID,0,VALID,25.2202,VALID,346,VALID,0.333984,
2010-03-19, 00:02:05,VALID,1005.59,VALID,0,VALID,83.643,VALID,0,VALID,25.2611,VALID,343,VALID,0.829687,
2010-03-19, 00:03:05,VALID,1005.59,VALID,0,VALID,83.8261,VALID,0,VALID,25.2592,VALID,314,VALID,0.271094,
2010-03-19, 00:04:05,VALID,1005.54,VALID,0,VALID,83.9711,VALID,0,VALID,25.2592,VALID,314,VALID,0.15,
2010-03-19, 00:05:05,VALID,1005.55,VALID,0,VALID,83.8872,VALID,0,VALID,25.2611,VALID,331,VALID,0.508984,
2010-03-19, 00:06:05,VALID,1005.51,VALID,0,VALID,83.9711,VALID,0,VALID,25.2611,VALID,13,VALID,0.435156,
2010-03-19, 00:07:05,VALID,1005.52,VALID,0,VALID,84.2076,VALID,0,VALID,25.2611,VALID,9,VALID,0.739844,
2010-03-19, 00:08:05,VALID,1005.51,VALID,0,VALID,84.0855,VALID,0,VALID,25.263,VALID,360,VALID,0.346094,
2010-03-19, 00:09:05,VALID,1005.5,VALID,0,VALID,83.9863,VALID,0,VALID,25.2416,VALID,344,VALID,0.689844,
2010-03-19, 00:10:05,VALID,1005.48,VALID,0,VALID,83.9177,VALID,0,VALID,25.2416,VALID,11,VALID,0.0347656,
2010-03-19, 00:11:05,VALID,1005.49,VALID,0,VALID,83.9482,VALID,0,VALID,25.2416,VALID,326,VALID,0.719922,
2010-03-19, 00:12:05,VALID,1005.5,VALID,0,VALID,84.0474,VALID,0,VALID,25.2611,VALID,284,VALID,0.559766,
2010-03-19, 00:13:05,VALID,1005.51,VALID,0,VALID,83.46,VALID,0,VALID,25.3,VALID,286,VALID,0.6,
2010-03-19, 00:14:05,VALID,1005.52,VALID,0,VALID,83.8109,VALID,0,VALID,25.3195,VALID,261,VALID,0.365625,
2010-03-19, 00:15:05,VALID,1005.49,VALID,0,VALID,84.055,VALID,0,VALID,25.339,VALID,261,VALID,0.146875,
2010-03-19, 00:16:05,VALID,1005.51,VALID,0,VALID,83.0632,VALID,0,VALID,25.3584,VALID,292,VALID,0.939453,
2010-03-19, 00:17:05,VALID,1005.52,VALID,0,VALID,83.2387,VALID,0,VALID,25.337,VALID,294,VALID,0.687891,
2010-03-19, 00:18:05,VALID,1005.53,VALID,0,VALID,83.0709,VALID,0,VALID,25.3779,VALID,307,VALID,0.75625,
2010-03-19, 00:19:05,VALID,1005.53,VALID,0,VALID,82.9336,VALID,0,VALID,25.3974,VALID,287,VALID,0.929297,
2010-03-19, 00:20:05,VALID,1005.49,VALID,0,VALID,83.1395,VALID,0,VALID,25.3974,VALID,287,VALID,0.780859,
2010-03-19, 00:21:05,VALID,1005.54,VALID,0,VALID,83.2616,VALID,0,VALID,25.376,VALID,292,VALID,0.235547,
2010-03-19, 00:22:05,VALID,1005.49,VALID,0,VALID,83.6659,VALID,0,VALID,25.3955,VALID,292,VALID,0.156641,
2010-03-19, 00:23:05,VALID,1005.5,VALID,0,VALID,83.3608,VALID,0,VALID,25.3974,VALID,292,VALID,0.128125,
2010-03-19, 00:24:05,VALID,1005.51,VALID,0,VALID,83.7422,VALID,0,VALID,25.3974,VALID,292,VALID,0.160547,
2010-03-19, 00:25:05,VALID,1005.49,VALID,0,VALID,83.6964,VALID,0,VALID,25.3565,VALID,301,VALID,0.251563,
2010-03-19, 00:26:05,VALID,1005.48,VALID,0,VALID,83.7651,VALID,0,VALID,25.3974,VALID,302,VALID,0.327734,
2010-03-19, 00:27:05,VALID,1005.5,VALID,0,VALID,83.4447,VALID,0,VALID,25.4188,VALID,302,VALID,0.315625,
2010-03-19, 00:28:05,VALID,1005.49,VALID,0,VALID,83.3074,VALID,0,VALID,25.3779,VALID,302,VALID,0.457812,
2010-03-19, 00:29:05,VALID,1005.5,VALID,0,VALID,83.7804,VALID,0,VALID,25.3779,VALID,302,VALID,0.471875,
2010-03-19, 00:30:05,VALID,1005.51,VALID,0,VALID,83.9406,VALID,0,VALID,25.3798,VALID,306,VALID,0.356641,
2010-03-19, 00:31:05,VALID,1005.54,VALID,0,VALID,84.3296,VALID,0,VALID,25.339,VALID,310,VALID,0.368359,
2010-03-19, 00:32:05,VALID,1005.54,VALID,0,VALID,84.1542,VALID,0,VALID,25.3195,VALID,311,VALID,0.0710938,
2010-03-19, 00:33:05,VALID,1005.59,VALID,0,VALID,83.8795,VALID,0,VALID,25.3195,VALID,306,VALID,0.685547,
2010-03-19, 00:34:05,VALID,1005.61,VALID,0,VALID,84.6653,VALID,0,VALID,25.3409,VALID,306,VALID,0.0382813,
2010-03-19, 00:35:05,VALID,1005.64,VALID,0,VALID,84.5967,VALID,0,VALID,25.339,VALID,296,VALID,0.272266,
2010-03-19, 00:36:05,VALID,1005.68,VALID,0,VALID,85.0086,VALID,0,VALID,25.3195,VALID,221,VALID,1.01406,
2010-03-19, 00:37:05,VALID,1005.64,VALID,0,VALID,85.4969,VALID,0,VALID,25.3214,VALID,269,VALID,0.940234,
2010-03-19, 00:38:05,VALID,1005.67,VALID,0,VALID,86.1987,VALID,0,VALID,25.2786,VALID,218,VALID,0.873438,
2010-03-19, 00:39:05,VALID,1005.69,VALID,0,VALID,86.6488,VALID,0,VALID,25.3,VALID,251,VALID,1.86172,
2010-03-19, 00:40:05,VALID,1005.68,VALID,0,VALID,86.8319,VALID,0,VALID,25.2806,VALID,312,VALID,0.822266,
2010-03-19, 00:41:05,VALID,1005.67,VALID,0,VALID,86.6946,VALID,0,VALID,25.3019,VALID,256,VALID,2.93711,
2010-03-19, 00:42:05,VALID,1005.7,VALID,0,VALID,87.1218,VALID,0,VALID,25.2397,VALID,300,VALID,0.896875,
2010-03-19, 00:43:05,VALID,1005.7,VALID,0,VALID,86.9464,VALID,0,VALID,25.2416,VALID,293,VALID,1.89766,
2010-03-19, 00:44:05,VALID,1005.73,VALID,0,VALID,87.3812,VALID,0,VALID,25.2007,VALID,268,VALID,0.733984,
2010-03-19, 00:45:05,VALID,1005.72,VALID,0,VALID,87.4575,VALID,0,VALID,25.1832,VALID,311,VALID,1.4207,
2010-03-19, 00:46:05,VALID,1005.7,VALID,0,VALID,87.8313,VALID,0,VALID,25.1637,VALID,90,VALID,0.377734,
2010-03-19, 00:47:05,VALID,1005.7,VALID,0,VALID,88.4416,VALID,0,VALID,25.1248,VALID,281,VALID,1.14063,
2010-03-19, 00:48:05,VALID,1005.72,VALID,0,VALID,88.968,VALID,0,VALID,25.0682,VALID,232,VALID,0.601953,
2010-03-19, 00:49:05,VALID,1005.69,VALID,0,VALID,89.6241,VALID,0,VALID,24.969,VALID,284,VALID,1.26602,
2010-03-19, 00:50:05,VALID,1005.65,VALID,0,VALID,90.7608,VALID,0,VALID,24.8911,VALID,284,VALID,1.48594,
2010-03-19, 00:51:05,VALID,1005.59,VALID,0,VALID,91.5313,VALID,0,VALID,24.8522,VALID,295,VALID,1.94492,
2010-03-19, 00:52:05,VALID,1005.57,VALID,0,VALID,92.0501,VALID,0,VALID,24.7724,VALID,301,VALID,1.25,
2010-03-19, 00:53:05,VALID,1005.54,VALID,0.5,VALID,92.4086,VALID,0,VALID,24.7159,VALID,328,VALID,2.44883,
2010-03-19, 00:54:05,VALID,1005.54,VALID,0,VALID,92.8969,VALID,0,VALID,24.638,VALID,291,VALID,1.74961,
2010-03-19, 00:55:05,VALID,1005.5,VALID,0,VALID,93.3394,VALID,0,VALID,24.599,VALID,291,VALID,0.975391,
2010-03-19, 00:56:05,VALID,1005.53,VALID,0,VALID,93.7132,VALID,0,VALID,24.5601,VALID,331,VALID,1.09375,
2010-03-19, 00:57:05,VALID,1005.52,VALID,0,VALID,93.9573,VALID,0,VALID,24.5212,VALID,250,VALID,1.61406,
2010-03-19, 00:58:05,VALID,1005.57,VALID,0,VALID,94.2014,VALID,0,VALID,24.5017,VALID,279,VALID,1.5332,
2010-03-19, 00:59:05,VALID,1005.5,VALID,0,VALID,94.3845,VALID,0,VALID,24.4822,VALID,295,VALID,2.44336,
2010-03-19, 01:00:05,VALID,1005.55,VALID,0.5,VALID,94.5295,VALID,0,VALID,24.4822,VALID,288,VALID,1.19492,
2010-03-19, 01:01:05,VALID,1005.56,VALID,0,VALID,94.6973,VALID,0,VALID,24.4628,VALID,295,VALID,1.41406,
2010-03-19, 01:02:05,VALID,1005.54,VALID,0.5,VALID,94.7965,VALID,0,VALID,24.4822,VALID,271,VALID,1.05469,
2010-03-19, 01:03:05,VALID,1005.54,VALID,0,VALID,94.888,VALID,0,VALID,24.4628,VALID,305,VALID,2.15898,
2010-03-19, 01:04:05,VALID,1005.6,VALID,0,VALID,94.9414,VALID,0,VALID,24.383,VALID,292,VALID,3.70898,
2010-03-19, 01:05:05,VALID,1005.58,VALID,0.5,VALID,94.9338,VALID,0,VALID,24.3265,VALID,307,VALID,0.921094,
2010-03-19, 01:06:05,VALID,1005.56,VALID,0.5,VALID,94.9338,VALID,0,VALID,24.2486,VALID,288,VALID,2.39492,
2010-03-19, 01:07:05,VALID,1005.54,VALID,0,VALID,94.9033,VALID,0,VALID,24.2115,VALID,315,VALID,1.14961,
2010-03-19, 01:08:05,VALID,1005.58,VALID,0.5,VALID,94.9414,VALID,0,VALID,24.1318,VALID,277,VALID,2.38555,
2010-03-19, 01:09:05,VALID,1005.54,VALID,0,VALID,94.8956,VALID,0,VALID,24.0539,VALID,294,VALID,1.73398,
2010-03-19, 01:10:05,VALID,1005.52,VALID,0,VALID,94.9185,VALID,0,VALID,23.9955,VALID,335,VALID,0.895312,
2010-03-19, 01:11:05,VALID,1005.51,VALID,0,VALID,94.9262,VALID,0,VALID,23.9371,VALID,291,VALID,1.66602,
2010-03-19, 01:12:05,VALID,1005.47,VALID,0.5,VALID,94.9338,VALID,0,VALID,23.9,VALID,338,VALID,1.95313,
2010-03-19, 01:13:05,VALID,1005.45,VALID,0,VALID,94.8956,VALID,0,VALID,23.8203,VALID,305,VALID,1.24766,
2010-03-19, 01:14:05,VALID,1005.43,VALID,0,VALID,94.9033,VALID,0,VALID,23.7619,VALID,145,VALID,0.738281,
2010-03-19, 01:15:05,VALID,1005.38,VALID,0,VALID,94.9338,VALID,0,VALID,23.7212,VALID,281,VALID,0.644531,
2010-03-19, 01:16:05,VALID,1005.35,VALID,0,VALID,94.9643,VALID,0,VALID,23.723,VALID,348,VALID,1.54023,
2010-03-19, 01:17:05,VALID,1005.35,VALID,0,VALID,94.9796,VALID,0,VALID,23.6859,VALID,360,VALID,1.13555,
2010-03-19, 01:18:05,VALID,1005.33,VALID,0,VALID,94.9872,VALID,0,VALID,23.6452,VALID,343,VALID,0.299609,
2010-03-19, 01:19:05,VALID,1005.35,VALID,0,VALID,95.033,VALID,0,VALID,23.6452,VALID,343,VALID,0.275,
2010-03-19, 01:20:05,VALID,1005.33,VALID,0.5,VALID,95.0787,VALID,0,VALID,23.6239,VALID,343,VALID,0.231641,
2010-03-19, 01:21:05,VALID,1005.35,VALID,0,VALID,95.1245,VALID,0,VALID,23.6044,VALID,350,VALID,0.751172,
2010-03-19, 01:22:05,VALID,1005.33,VALID,0,VALID,95.1474,VALID,0,VALID,23.6062,VALID,357,VALID,0.543359,
2010-03-19, 01:23:05,VALID,1005.3,VALID,0,VALID,95.1932,VALID,0,VALID,23.6062,VALID,340,VALID,0.547266,
2010-03-19, 01:24:05,VALID,1005.32,VALID,0,VALID,95.2084,VALID,0,VALID,23.5655,VALID,360,VALID,0.391797,
2010-03-19, 01:25:05,VALID,1005.29,VALID,0,VALID,95.2389,VALID,0,VALID,23.6062,VALID,315,VALID,0.457031,
2010-03-19, 01:26:05,VALID,1005.29,VALID,0,VALID,95.2466,VALID,0,VALID,23.5655,VALID,319,VALID,0.255078,
2010-03-19, 01:27:05,VALID,1005.29,VALID,0,VALID,95.2771,VALID,0,VALID,23.546,VALID,336,VALID,0.509375,
2010-03-19, 01:28:05,VALID,1005.26,VALID,0.5,VALID,95.3,VALID,0,VALID,23.5885,VALID,354,VALID,0.461328,
2010-03-19, 01:29:05,VALID,1005.27,VALID,0,VALID,95.3152,VALID,0,VALID,23.5478,VALID,354,VALID,0.145703,
2010-03-19, 01:30:05,VALID,1005.26,VALID,0,VALID,95.3534,VALID,0,VALID,23.5868,VALID,354,VALID,0.0183594,
2010-03-19, 01:31:05,VALID,1005.27,VALID,0,VALID,95.3839,VALID,0,VALID,23.5478,VALID,354,VALID,0,
2010-03-19, 01:32:05,VALID,1005.28,VALID,0,VALID,95.4144,VALID,0,VALID,23.5673,VALID,354,VALID,0.153516,
2010-03-19, 01:33:05,VALID,1005.25,VALID,0,VALID,95.422,VALID,0,VALID,23.546,VALID,354,VALID,0.00273437,
2010-03-19, 01:34:05,VALID,1005.21,VALID,0.5,VALID,95.4602,VALID,0,VALID,23.5266,VALID,354,VALID,0.450391,
2010-03-19, 01:35:05,VALID,1005.2,VALID,0,VALID,95.4754,VALID,0,VALID,23.5071,VALID,327,VALID,0.299219,
2010-03-19, 01:36:05,VALID,1005.22,VALID,0,VALID,95.4831,VALID,0,VALID,23.5089,VALID,327,VALID,0.00507812,
2010-03-19, 01:37:05,VALID,1005.23,VALID,0,VALID,95.4983,VALID,0,VALID,23.5089,VALID,327,VALID,0,
2010-03-19, 01:38:05,VALID,1005.2,VALID,0.5,VALID,95.5136,VALID,0,VALID,23.5284,VALID,327,VALID,0.0257812,
2010-03-19, 01:39:05,VALID,1005.19,VALID,0,VALID,95.5594,VALID,0.100563,VALID,23.5071,VALID,327,VALID,0.00664063,
2010-03-19, 01:40:05,VALID,1005.19,VALID,0,VALID,95.5822,VALID,0,VALID,23.5266,VALID,327,VALID,0.192969,
2010-03-19, 01:41:05,VALID,1005.18,VALID,0,VALID,95.6051,VALID,0,VALID,23.5266,VALID,327,VALID,0,
2010-03-19, 01:42:05,VALID,1005.15,VALID,0,VALID,95.6128,VALID,0.100563,VALID,23.5284,VALID,327,VALID,0.000390625,
2010-03-19, 01:43:05,VALID,1005.16,VALID,0.5,VALID,95.628,VALID,0,VALID,23.5266,VALID,327,VALID,0.501953,
2010-03-19, 01:44:05,VALID,1005.15,VALID,0,VALID,95.6433,VALID,0,VALID,23.5266,VALID,326,VALID,0.489453,
2010-03-19, 01:45:05,VALID,1005.13,VALID,0,VALID,95.6585,VALID,0,VALID,23.4877,VALID,311,VALID,0.54375,
2010-03-19, 01:46:05,VALID,1005.12,VALID,0,VALID,95.6662,VALID,0,VALID,23.47,VALID,308,VALID,0.178125,
2010-03-19, 01:47:05,VALID,1005.09,VALID,0,VALID,95.6967,VALID,0,VALID,23.4487,VALID,308,VALID,0,
2010-03-19, 01:48:05,VALID,1005.06,VALID,0,VALID,95.689,VALID,0,VALID,23.4894,VALID,308,VALID,0,
2010-03-19, 01:49:05,VALID,1005.06,VALID,0.5,VALID,95.7119,VALID,0,VALID,23.5089,VALID,308,VALID,0,
2010-03-19, 01:50:05,VALID,1005.03,VALID,0,VALID,95.7272,VALID,0,VALID,23.4877,VALID,308,VALID,0.308984,
2010-03-19, 01:51:05,VALID,1005,VALID,0,VALID,95.7501,VALID,0,VALID,23.4682,VALID,307,VALID,0.196094,
2010-03-19, 01:52:05,VALID,1004.98,VALID,0,VALID,95.7577,VALID,0,VALID,23.4894,VALID,308,VALID,0.460938,
2010-03-19, 01:53:05,VALID,1004.96,VALID,0,VALID,95.773,VALID,0,VALID,23.4894,VALID,308,VALID,0.225781,
2010-03-19, 01:54:05,VALID,1004.96,VALID,0,VALID,95.7882,VALID,0,VALID,23.4682,VALID,308,VALID,0.422656,
2010-03-19, 01:55:05,VALID,1004.93,VALID,0.5,VALID,95.8111,VALID,0,VALID,23.47,VALID,322,VALID,0.532422,
2010-03-19, 01:56:05,VALID,1004.93,VALID,0,VALID,95.8187,VALID,0,VALID,23.4098,VALID,328,VALID,0.417969,
2010-03-19, 01:57:05,VALID,1004.93,VALID,0,VALID,95.834,VALID,0,VALID,23.4311,VALID,328,VALID,0.305078,
2010-03-19, 01:58:05,VALID,1004.93,VALID,0,VALID,95.8187,VALID,0,VALID,23.3921,VALID,328,VALID,0.46875,
2010-03-19, 01:59:05,VALID,1004.9,VALID,0,VALID,95.8264,VALID,0,VALID,23.4116,VALID,328,VALID,0.316016,
2010-03-19, 02:00:05,VALID,1004.9,VALID,0,VALID,95.834,VALID,0.100563,VALID,23.3921,VALID,328,VALID,0.301562,
2010-03-19, 02:01:05,VALID,1004.91,VALID,0,VALID,95.834,VALID,0,VALID,23.3921,VALID,328,VALID,0.310156,
2010-03-19, 02:02:05,VALID,1004.86,VALID,0.5,VALID,95.8645,VALID,0,VALID,23.3514,VALID,328,VALID,0.342578,
2010-03-19, 02:03:05,VALID,1004.86,VALID,0,VALID,95.8493,VALID,0,VALID,23.3709,VALID,328,VALID,0.330859,
2010-03-19, 02:04:05,VALID,1004.87,VALID,0,VALID,95.8645,VALID,0,VALID,23.3921,VALID,328,VALID,0.384375,
2010-03-19, 02:05:05,VALID,1004.82,VALID,0,VALID,95.8721,VALID,0,VALID,23.3727,VALID,328,VALID,0.306641,
2010-03-19, 02:06:05,VALID,1004.8,VALID,0,VALID,95.8874,VALID,0,VALID,23.3727,VALID,328,VALID,0.283594,
2010-03-19, 02:07:05,VALID,1004.77,VALID,0,VALID,95.9027,VALID,0,VALID,23.3337,VALID,334,VALID,0.400781,
2010-03-19, 02:08:05,VALID,1004.75,VALID,0,VALID,95.9179,VALID,0.100563,VALID,23.3337,VALID,338,VALID,0.414844,
2010-03-19, 02:09:05,VALID,1004.73,VALID,0,VALID,95.9179,VALID,0.100563,VALID,23.332,VALID,338,VALID,0.380859,
2010-03-19, 02:10:05,VALID,1004.72,VALID,0,VALID,95.9027,VALID,0,VALID,23.3337,VALID,338,VALID,0.206641,
2010-03-19, 02:11:05,VALID,1004.66,VALID,0,VALID,95.9027,VALID,0,VALID,23.3125,VALID,338,VALID,0.316797,
2010-03-19, 02:12:05,VALID,1004.66,VALID,0.5,VALID,95.9179,VALID,0,VALID,23.3125,VALID,338,VALID,0.322656,
2010-03-19, 02:13:05,VALID,1004.62,VALID,0,VALID,95.9408,VALID,0,VALID,23.3337,VALID,338,VALID,0.186328,
2010-03-19, 02:14:05,VALID,1004.62,VALID,0,VALID,95.9179,VALID,0,VALID,23.3337,VALID,338,VALID,0.00507812,
2010-03-19, 02:15:05,VALID,1004.59,VALID,0,VALID,95.9484,VALID,0,VALID,23.3532,VALID,338,VALID,0.0078125,
2010-03-19, 02:16:05,VALID,1004.6,VALID,0,VALID,95.9408,VALID,0,VALID,23.3514,VALID,338,VALID,0.0140625,
2010-03-19, 02:17:05,VALID,1004.6,VALID,0,VALID,95.9484,VALID,0,VALID,23.3302,VALID,338,VALID,0.141797,
2010-03-19, 02:18:05,VALID,1004.57,VALID,0,VALID,95.9561,VALID,0,VALID,23.3921,VALID,338,VALID,0.00195313,
2010-03-19, 02:19:05,VALID,1004.57,VALID,0,VALID,95.9866,VALID,0,VALID,23.3904,VALID,338,VALID,0,
2010-03-19, 02:20:05,VALID,1004.54,VALID,0,VALID,95.9484,VALID,0,VALID,23.4098,VALID,338,VALID,0,
2010-03-19, 02:21:05,VALID,1004.51,VALID,0,VALID,95.9561,VALID,0,VALID,23.4311,VALID,338,VALID,0,
2010-03-19, 02:22:05,VALID,1004.51,VALID,0,VALID,95.9713,VALID,0,VALID,23.4098,VALID,338,VALID,0.0140625,
2010-03-19, 02:23:05,VALID,1004.5,VALID,0,VALID,95.9789,VALID,0.100563,VALID,23.4098,VALID,338,VALID,0.00078125,
2010-03-19, 02:24:05,VALID,1004.5,VALID,0.5,VALID,95.9789,VALID,0,VALID,23.4098,VALID,338,VALID,0.244922,
2010-03-19, 02:25:05,VALID,1004.47,VALID,0,VALID,95.9789,VALID,0.100563,VALID,23.4098,VALID,338,VALID,0.0917969,
2010-03-19, 02:26:05,VALID,1004.45,VALID,0,VALID,95.9866,VALID,0,VALID,23.4098,VALID,338,VALID,0,
2010-03-19, 02:27:05,VALID,1004.45,VALID,0,VALID,95.9942,VALID,0,VALID,23.4098,VALID,338,VALID,0,
2010-03-19, 02:28:05,VALID,1004.4,VALID,0,VALID,96.0018,VALID,0,VALID,23.4293,VALID,338,VALID,0,
2010-03-19, 02:29:05,VALID,1004.4,VALID,0,VALID,95.9866,VALID,0,VALID,23.4487,VALID,338,VALID,0,
2010-03-19, 02:30:04,VALID,1004.38,VALID,0,VALID,95.9942,VALID,0,VALID,23.4682,VALID,338,VALID,0,
2010-03-19, 02:31:04,VALID,1004.39,VALID,0,VALID,96.0171,VALID,0,VALID,23.4877,VALID,338,VALID,0.122266,
2010-03-19, 02:32:04,VALID,1004.39,VALID,0,VALID,96.0018,VALID,0,VALID,23.4877,VALID,338,VALID,0,
2010-03-19, 02:33:04,VALID,1004.39,VALID,0,VALID,95.9866,VALID,0.100563,VALID,23.5266,VALID,338,VALID,0.253906,
2010-03-19, 02:34:04,VALID,1004.38,VALID,0,VALID,95.9942,VALID,0.100563,VALID,23.5655,VALID,338,VALID,0.0171875,
2010-03-19, 02:35:04,VALID,1004.37,VALID,0,VALID,96.0323,VALID,0,VALID,23.5868,VALID,353,VALID,0.716406,
2010-03-19, 02:36:04,VALID,1004.35,VALID,0,VALID,96.0018,VALID,0,VALID,23.585,VALID,357,VALID,0.81875,
2010-03-19, 02:37:04,VALID,1004.34,VALID,0,VALID,96.0095,VALID,0,VALID,23.6062,VALID,356,VALID,0.601953,
2010-03-19, 02:38:04,VALID,1004.33,VALID,0,VALID,96.04,VALID,0.100563,VALID,23.585,VALID,355,VALID,0.569141,
2010-03-19, 02:39:04,VALID,1004.33,VALID,0,VALID,96.0247,VALID,0,VALID,23.585,VALID,350,VALID,0.483203,
2010-03-19, 02:40:04,VALID,1004.33,VALID,0.5,VALID,96.0171,VALID,0.100563,VALID,23.6044,VALID,355,VALID,0.890625,
2010-03-19, 02:41:04,VALID,1004.34,VALID,0,VALID,96.0323,VALID,0,VALID,23.6239,VALID,354,VALID,0.857422,
2010-03-19, 02:42:04,VALID,1004.35,VALID,0,VALID,96.0323,VALID,0,VALID,23.6628,VALID,355,VALID,0.800391,
2010-03-19, 02:43:04,VALID,1004.32,VALID,0,VALID,96.0247,VALID,0,VALID,23.6628,VALID,356,VALID,0.780078,
2010-03-19, 02:44:04,VALID,1004.35,VALID,0,VALID,96.0171,VALID,0,VALID,23.6628,VALID,357,VALID,0.805859,
2010-03-19, 02:45:04,VALID,1004.33,VALID,0,VALID,96.0171,VALID,0,VALID,23.7035,VALID,355,VALID,0.494531,
2010-03-19, 02:46:04,VALID,1004.34,VALID,0,VALID,96.0323,VALID,0,VALID,23.723,VALID,351,VALID,0.83125,
2010-03-19, 02:47:04,VALID,1004.33,VALID,0,VALID,96.0171,VALID,0,VALID,23.7017,VALID,358,VALID,1.04688,
2010-03-19, 02:48:04,VALID,1004.31,VALID,0,VALID,96.0247,VALID,0,VALID,23.7407,VALID,357,VALID,0.700391,
2010-03-19, 02:49:04,VALID,1004.3,VALID,0,VALID,96.0323,VALID,0.100563,VALID,23.7619,VALID,354,VALID,0.898438,
2010-03-19, 02:50:04,VALID,1004.3,VALID,0,VALID,96.04,VALID,0,VALID,23.7601,VALID,345,VALID,0.878906,
2010-03-19, 02:51:04,VALID,1004.29,VALID,0,VALID,96.0247,VALID,0,VALID,23.7407,VALID,350,VALID,0.614453,
2010-03-19, 02:52:04,VALID,1004.31,VALID,0,VALID,96.04,VALID,0,VALID,23.7796,VALID,350,VALID,0.376953,
2010-03-19, 02:53:04,VALID,1004.27,VALID,0,VALID,96.0095,VALID,0,VALID,23.7991,VALID,350,VALID,0.0949219,
2010-03-19, 02:54:04,VALID,1004.29,VALID,0,VALID,96.0171,VALID,0,VALID,23.8203,VALID,350,VALID,0.246484,
2010-03-19, 02:55:04,VALID,1004.25,VALID,0,VALID,96.0171,VALID,0,VALID,23.838,VALID,297,VALID,0.700391,
2010-03-19, 02:56:04,VALID,1004.23,VALID,0.5,VALID,96.0247,VALID,0,VALID,23.838,VALID,340,VALID,0.378125,
2010-03-19, 02:57:04,VALID,1004.23,VALID,0,VALID,96.0171,VALID,0,VALID,23.838,VALID,303,VALID,0.568359,
2010-03-19, 02:58:04,VALID,1004.18,VALID,0,VALID,96.04,VALID,0,VALID,23.8575,VALID,290,VALID,0.929297,
2010-03-19, 02:59:04,VALID,1004.17,VALID,0,VALID,96.0476,VALID,0.100563,VALID,23.838,VALID,293,VALID,0.391797,
2010-03-19, 03:00:04,VALID,1004.16,VALID,0,VALID,96.0247,VALID,0,VALID,23.838,VALID,293,VALID,0.144531,
2010-03-19, 03:01:04,VALID,1004.17,VALID,0,VALID,96.0171,VALID,0,VALID,23.838,VALID,347,VALID,0.672656,
2010-03-19, 03:02:04,VALID,1004.16,VALID,0,VALID,96.0476,VALID,0,VALID,23.8398,VALID,348,VALID,0.551953,
2010-03-19, 03:03:04,VALID,1004.13,VALID,0,VALID,96.04,VALID,0,VALID,23.838,VALID,351,VALID,0.548828,
2010-03-19, 03:04:04,VALID,1004.1,VALID,0,VALID,96.0323,VALID,0,VALID,23.838,VALID,353,VALID,0.458984,
2010-03-19, 03:05:04,VALID,1004.13,VALID,0,VALID,96.0476,VALID,0,VALID,23.8593,VALID,353,VALID,0.354688,
2010-03-19, 03:06:04,VALID,1004.09,VALID,0,VALID,96.0323,VALID,0,VALID,23.8593,VALID,353,VALID,0.332031,
2010-03-19, 03:07:04,VALID,1004.1,VALID,0,VALID,96.0171,VALID,0,VALID,23.8575,VALID,353,VALID,0.346094,
2010-03-19, 03:08:04,VALID,1004.08,VALID,0,VALID,96.04,VALID,0,VALID,23.8787,VALID,353,VALID,0.284375,
2010-03-19, 03:09:04,VALID,1004.07,VALID,0,VALID,96.0247,VALID,0,VALID,23.8787,VALID,353,VALID,0.257422,
2010-03-19, 03:10:04,VALID,1004.06,VALID,0,VALID,96.0247,VALID,0,VALID,23.8575,VALID,353,VALID,0.0242187,
2010-03-19, 03:11:04,VALID,1004.07,VALID,0,VALID,96.0247,VALID,0,VALID,23.8982,VALID,353,VALID,0.333984,
2010-03-19, 03:12:04,VALID,1004.07,VALID,0,VALID,96.0323,VALID,0,VALID,23.8982,VALID,353,VALID,0.395703,
2010-03-19, 03:13:04,VALID,1004.07,VALID,0,VALID,96.0247,VALID,0,VALID,23.9195,VALID,353,VALID,0.449219,
2010-03-19, 03:14:04,VALID,1004.01,VALID,0,VALID,96.04,VALID,0.100563,VALID,23.9177,VALID,353,VALID,0.215234,
2010-03-19, 03:15:04,VALID,1004.01,VALID,0,VALID,96.0323,VALID,0,VALID,23.8964,VALID,353,VALID,0.237891,
2010-03-19, 03:16:04,VALID,1004.02,VALID,0,VALID,96.0095,VALID,0,VALID,23.8964,VALID,353,VALID,0,
2010-03-19, 03:17:04,VALID,1004,VALID,0,VALID,96.0171,VALID,0,VALID,23.9177,VALID,353,VALID,0.140234,
2010-03-19, 03:18:04,VALID,1004.01,VALID,0,VALID,96.0171,VALID,0,VALID,23.9371,VALID,353,VALID,0.174219,
2010-03-19, 03:19:04,VALID,1003.99,VALID,0,VALID,96.0247,VALID,0,VALID,23.9371,VALID,353,VALID,0.188281,
2010-03-19, 03:20:04,VALID,1003.98,VALID,0,VALID,96.0247,VALID,0,VALID,23.9566,VALID,353,VALID,0.248047,
2010-03-19, 03:21:04,VALID,1003.96,VALID,0,VALID,96.0247,VALID,0,VALID,23.9371,VALID,353,VALID,0.270703,
2010-03-19, 03:22:04,VALID,1003.96,VALID,0,VALID,96.0095,VALID,0,VALID,23.9353,VALID,353,VALID,0.334766,
2010-03-19, 03:23:04,VALID,1003.93,VALID,0,VALID,96.0247,VALID,0.100563,VALID,23.9566,VALID,353,VALID,0.213672,
2010-03-19, 03:24:04,VALID,1003.93,VALID,0,VALID,96.0018,VALID,0,VALID,23.9353,VALID,353,VALID,0.239063,
2010-03-19, 03:25:04,VALID,1003.9,VALID,0,VALID,96.0247,VALID,0,VALID,23.9159,VALID,353,VALID,0.0945313,
2010-03-19, 03:26:04,VALID,1003.9,VALID,0,VALID,96.0018,VALID,0,VALID,23.9159,VALID,353,VALID,0.162891,
2010-03-19, 03:27:04,VALID,1003.88,VALID,0,VALID,96.0247,VALID,0,VALID,23.9371,VALID,353,VALID,0.155469,
2010-03-19, 03:28:04,VALID,1003.89,VALID,0,VALID,96.04,VALID,0,VALID,23.9389,VALID,339,VALID,0.471875,
2010-03-19, 03:29:04,VALID,1003.9,VALID,0,VALID,96.0247,VALID,0,VALID,23.9159,VALID,339,VALID,0,
2010-03-19, 03:30:04,VALID,1003.89,VALID,0,VALID,96.0323,VALID,0,VALID,23.9371,VALID,339,VALID,0.0875,
2010-03-19, 03:31:04,VALID,1003.87,VALID,0,VALID,96.0171,VALID,0,VALID,23.9566,VALID,338,VALID,0.169922,
2010-03-19, 03:32:04,VALID,1003.91,VALID,0,VALID,96.0171,VALID,0,VALID,23.9353,VALID,338,VALID,0.00195313,
2010-03-19, 03:33:04,VALID,1003.9,VALID,0,VALID,96.0171,VALID,0,VALID,23.9761,VALID,338,VALID,0.0078125,
2010-03-19, 03:34:04,VALID,1003.86,VALID,0,VALID,96.04,VALID,0,VALID,23.9761,VALID,338,VALID,0.0933594,
2010-03-19, 03:35:04,VALID,1003.88,VALID,0,VALID,96.0247,VALID,0,VALID,23.9548,VALID,338,VALID,0,
2010-03-19, 03:36:04,VALID,1003.89,VALID,0,VALID,96.0095,VALID,0,VALID,23.9742,VALID,338,VALID,0,
2010-03-19, 03:37:04,VALID,1003.89,VALID,0,VALID,96.0323,VALID,0,VALID,23.9955,VALID,338,VALID,0.139844,
2010-03-19, 03:38:04,VALID,1003.89,VALID,0,VALID,96.0247,VALID,0,VALID,24.0345,VALID,338,VALID,0.241016,
2010-03-19, 03:39:04,VALID,1003.88,VALID,0,VALID,96.0247,VALID,0,VALID,24.0132,VALID,338,VALID,0.301172,
2010-03-19, 03:40:04,VALID,1003.88,VALID,0,VALID,96.0247,VALID,0,VALID,24.0132,VALID,338,VALID,0.358594,
2010-03-19, 03:41:04,VALID,1003.9,VALID,0,VALID,96.0323,VALID,0,VALID,24.0539,VALID,338,VALID,0.379297,
2010-03-19, 03:42:04,VALID,1003.87,VALID,0,VALID,96.0171,VALID,0,VALID,24.0539,VALID,338,VALID,0.33125,
2010-03-19, 03:43:04,VALID,1003.88,VALID,0,VALID,96.0095,VALID,0,VALID,24.0326,VALID,338,VALID,0,
2010-03-19, 03:44:04,VALID,1003.87,VALID,0,VALID,96.0323,VALID,0,VALID,24.0752,VALID,338,VALID,0,
2010-03-19, 03:45:04,VALID,1003.85,VALID,0,VALID,96.0171,VALID,0,VALID,24.0326,VALID,338,VALID,0,